Weather History for KORD - October, 2013

Change the Weather History Date:

Friday, October 25, 2013

  Actual Average Record
Temperature  
Mean Temperature 40 °F 50 °F  
Max Temperature 51 °F 59 °F 79 °F (1963)
Min Temperature 29 °F 40 °F 14 °F (1887)
Degree Days  
Heating Degree Days 25 16  
Month to date heating degree days 285 296  
Since 1 July heating degree days 364 414  
Cooling Degree Days 0 0  
Month to date cooling degree days 25 10  
Year to date cooling degree days 933 842  
Moisture  
Dew Point 26 °F    
Average Humidity 59    
Maximum Humidity 78    
Minimum Humidity 39    
Precipitation  
Precipitation 0.00 in 0.10 in 1.94 in (1883)
Month to date precipitation 1.53 2.51  
Year to date precipitation 36.47 30.85  
Snow  
Snow 0.00 in 0.00 in 0.30 in (1962)
Month to date snowfall T 0.1  
Since 1 July snowfall T 0.1  
Since 1 September snowfall T 0.1  
Snow Depth 0.00 in    
Sea Level Pressure  
Sea Level Pressure 30.27 in    
Wind  
Wind Speed 12 mph (WSW)    
Max Wind Speed 26 mph    
Max Gust Speed 35 mph    
Visibility 10 miles    
Events      
T = Trace of Precipitation, MM = Missing Value Source: NWS Daily Summary

Daily Weather History Graph

Daily Weather History Graph

Search for Another Location

Airport or City:

Trip Planner

Search our weather history database for the weather conditions in past years. The results will help you decide how hot, cold, wet, or windy it might be!

Date:

Astronomy

Oct. 25, 2013 Rise Set
Actual Time 7:16 AM CDT 5:54 PM CDT
Civil Twilight 6:47 AM CDT 6:23 PM CDT
Nautical Twilight 6:14 AM CDT 6:55 PM CDT
Astronomical Twilight 5:42 AM CDT 7:28 PM CDT
Moon 11:12 PM CDT (10/25) 12:58 PM CDT (10/25)
Length of Visible Light 11h 35m
Length of Day
10h 38m
Waning Gibbous, 62% of the Moon is Illuminated
Oct 25
Waning Gibbous
Oct 26
Last Quarter
Nov 3
New
Nov 9
First Quarter
Nov 17
Full

Hourly Weather History & Observations

Time (CDT) Temp. Windchill Dew Point Humidity Pressure Visibility Wind Dir Wind Speed Gust Speed Precip Events Conditions
12:51 AM 30.9 °F 25.2 °F 25.0 °F 79% 30.31 in 10.0 mi West 5.8 mph - N/A   Partly Cloudy
1:51 AM 32.0 °F 26.4 °F 24.1 °F 73% 30.32 in 10.0 mi West 5.8 mph - N/A   Clear
2:51 AM 30.0 °F 24.1 °F 24.1 °F 79% 30.34 in 10.0 mi West 5.8 mph - N/A   Clear
3:51 AM 30.9 °F 26.2 °F 23.0 °F 72% 30.35 in 10.0 mi West 4.6 mph - N/A   Clear
4:51 AM 32.0 °F 25.6 °F 23.0 °F 69% 30.35 in 10.0 mi West 6.9 mph - N/A   Clear
5:51 AM 30.9 °F 25.2 °F 23.0 °F 72% 30.38 in 10.0 mi West 5.8 mph - N/A   Partly Cloudy
6:51 AM 30.0 °F 23.2 °F 23.0 °F 75% 30.38 in 10.0 mi West 6.9 mph - N/A   Partly Cloudy
7:51 AM 30.0 °F 24.1 °F 24.1 °F 79% 30.39 in 10.0 mi West 5.8 mph - N/A   Partly Cloudy
8:51 AM 34.0 °F 28.8 °F 26.1 °F 73% 30.41 in 10.0 mi West 5.8 mph - N/A   Partly Cloudy
9:51 AM 39.9 °F 35.8 °F 28.0 °F 63% 30.40 in 10.0 mi West 5.8 mph - N/A   Scattered Clouds
10:51 AM 44.1 °F 38.6 °F 28.0 °F 53% 30.40 in 10.0 mi West 10.4 mph - N/A   Mostly Cloudy
11:51 AM 45.0 °F 39.7 °F 26.1 °F 48% 30.37 in 10.0 mi WSW 10.4 mph - N/A   Mostly Cloudy
12:51 PM 48.0 °F - 28.0 °F 46% 30.34 in 10.0 mi SW 10.4 mph 19.6 mph N/A   Scattered Clouds
1:51 PM 50.0 °F - 27.0 °F 41% 30.29 in 10.0 mi WSW 16.1 mph 23.0 mph N/A   Mostly Cloudy
2:51 PM 50.0 °F - 28.0 °F 43% 30.26 in 10.0 mi WSW 19.6 mph 25.3 mph N/A   Mostly Cloudy
3:51 PM 50.0 °F - 27.0 °F 41% 30.23 in 10.0 mi SW 18.4 mph 24.2 mph N/A   Scattered Clouds
4:51 PM 50.0 °F - 26.1 °F 39% 30.20 in 10.0 mi WSW 15.0 mph 24.2 mph N/A   Partly Cloudy
5:51 PM 48.9 °F - 25.0 °F 39% 30.18 in 10.0 mi SW 13.8 mph 19.6 mph N/A   Scattered Clouds
6:51 PM 46.0 °F 40.6 °F 26.1 °F 46% 30.16 in 10.0 mi SSW 11.5 mph - N/A   Partly Cloudy
7:51 PM 45.0 °F 38.5 °F 27.0 °F 49% 30.14 in 10.0 mi SSW 13.8 mph - N/A   Partly Cloudy
8:51 PM 46.0 °F 39.0 °F 27.0 °F 47% 30.10 in 10.0 mi SW 17.3 mph 24.2 mph N/A   Mostly Cloudy
9:51 PM 46.9 °F - 26.1 °F 44% 30.08 in 10.0 mi SW 24.2 mph 34.5 mph N/A   Overcast
10:51 PM 46.0 °F 39.6 °F 27.0 °F 47% 30.07 in 10.0 mi SW 15.0 mph - N/A   Overcast
11:51 PM 45.0 °F 37.9 °F 26.1 °F 48% 30.04 in 10.0 mi SW 16.1 mph 26.5 mph N/A   Mostly Cloudy